Location: Bear Valley Meadows
(40.9851°N, 123.0761°W)
Time: 15:21:36
(UTC+00:00)

NOSS 0 Rocket - Pass Details

Date: 29 May 2024
Orbit: 934 x 954 km, 70.0° (Epoch: 17 June)

Event Time Altitude Azimuth Distance (km) Brightness Sun altitude
Rises 12:03:01 0° 327° (NNW) 3,629 7.0 -7.2°
Reaches altitude 10° 12:05:44 10° 319° (NW) 2,682 6.3 -6.8°
Maximum altitude 12:11:20 37° 255° (WSW) 1,452 4.5 -5.9°
Drops below altitude 10° 12:16:56 10° 190° (S) 2,673 5.9 -5.1°
Sets 12:19:39 0° 182° (S) 3,614 6.6 -4.7°
